Location: Burera
(21.3780°N, 81.9534°E)
Time: 00:12:22
(UTC+00:00)

Centaur AC-72 - Pass Details

Date: 13 August 2020
Orbit: 1140 x 35216 km, 19.1° (Epoch: 21 September)

Event Time Altitude Azimuth Distance (km) Brightness Sun altitude
Exits shadow 22:25:58 43° 247° (WSW) 1,576 3.1 -23.4°
Maximum altitude 22:27:51 62° 188° (S) 1,389 3.0 -23.1°
Drops below altitude 10° 22:38:07 10° 108° (ESE) 5,338 6.9 -20.9°
Sets 22:45:13 0° 106° (ESE) 8,307 8.1 -19.4°
